Kyiv, Ukraine

11:33 PM EET on December 10, 2019 (GMT +0200)
Zhuliany

Weather History for UKKK - August, 2019

Change the Weather History Date:

Monday, August 26, 2019

  Actual Average (UKBB) Record (UKBB)
Temperature  
Mean Temperature 72 °F -  
Max Temperature 83 °F 73 °F 87 °F (2018)
Min Temperature 62 °F 52 °F 42 °F (2013)
Cooling Degree Days 8    
Growing Degree Days 22 (Base 50)    
Moisture  
Dew Point 55 °F    
Average Humidity 56    
Maximum Humidity 88    
Minimum Humidity 26    
Precipitation  
Precipitation 0.00 in 0.07 in - ()
Sea Level Pressure  
Sea Level Pressure 30.30 in    
Wind  
Wind Speed 5 mph ()    
Max Wind Speed 9 mph    
Max Gust Speed -    
Visibility 12.0 miles    
Events      
Averages and records for this station are not official NWS values.
T = Trace of Precipitation, MM = Missing Value Source: Averaged Metar Reports

Daily Weather History Graph

Daily Weather History Graph

Search for Another Location

Airport or City:

Astronomy

Aug. 26, 2019 Rise Set
Actual Time 6:02 AM EEST 7:56 PM EEST
Civil Twilight 5:27 AM EEST 8:31 PM EEST
Nautical Twilight 4:44 AM EEST 9:13 PM EEST
Astronomical Twilight 3:56 AM EEST 10:01 PM EEST
Moon 12:48 AM EEST (8/26) 5:23 PM EEST (8/26)
Length of Visible Light 15h 03m
Length of Day
13h 53m
Waning Crescent, 22% of the Moon is Illuminated
Aug 26
Waning Crescent
Aug 30
New
Sep 6
First Quarter
Sep 14
Full
Sep 22
Last Quarter

Hourly Weather History & Observations

Time (EEST) Temp. Heat Index Dew Point Humidity Pressure Visibility Wind Dir Wind Speed Gust Speed Precip Events Conditions
12:00 AM 70 °F - 55 °F 49% 30.30 in 12 mi ENE 4.5 mph - -  
12:00 AM 68.0 °F - 55.4 °F 64% 30.30 in - NE 6.7 mph - N/A   Clear
1:00 AM 64.4 °F - 55.4 °F 73% 30.33 in - ENE 6.7 mph - N/A   Clear
1:30 AM 64.4 °F - 55.4 °F 73% 30.30 in - ENE 6.7 mph - N/A   Clear
2:00 AM 64.4 °F - 53.6 °F 68% 30.30 in - East 6.7 mph - N/A   Clear
2:30 AM 62.6 °F - 55.4 °F 77% 30.30 in - East 6.7 mph - N/A   Clear
3:00 AM 66 °F - 55 °F 59% 30.31 in 12 mi ENE 2.2 mph - -  
3:00 AM 62.6 °F - 53.6 °F 72% 30.30 in - East 6.7 mph - N/A   Clear
3:30 AM 60.8 °F - 53.6 °F 77% 30.30 in - East 6.7 mph - N/A   Clear
4:00 AM 62.6 °F - 53.6 °F 72% 30.30 in - East 4.5 mph - N/A   Clear
4:30 AM 62.6 °F - 53.6 °F 72% 30.30 in - East 4.5 mph - N/A   Clear
5:00 AM 59.0 °F - 53.6 °F 82% 30.30 in - East 6.7 mph - N/A   Clear
5:30 AM 59.0 °F - 53.6 °F 82% 30.30 in - East 6.7 mph - N/A   Clear
6:00 AM 63 °F - 54 °F 65% 30.32 in 12 mi East 2.2 mph - -  
6:00 AM 57.2 °F - 53.6 °F 88% 30.30 in - East 4.5 mph - N/A   Clear
6:30 AM 59.0 °F - 53.6 °F 82% 30.30 in - East 4.5 mph - N/A   Clear
7:00 AM 60.8 °F - 55.4 °F 82% 30.33 in - East 4.5 mph - N/A   Clear
7:30 AM 64.4 °F - 57.2 °F 77% 30.33 in - East 4.5 mph - N/A   Clear
8:00 AM 66.2 °F - 55.4 °F 68% 30.33 in - East 6.7 mph - N/A   Clear
8:30 AM 68.0 °F - 55.4 °F 64% 30.33 in - East 6.7 mph - N/A   Clear
9:00 AM 69 °F - 54 °F 50% 30.33 in 12 mi ESE 2.2 mph - -  
9:00 AM 69.8 °F - 55.4 °F 60% 30.33 in - East 6.7 mph - N/A   Clear
9:30 AM 73.4 °F - 55.4 °F 53% 30.33 in - East 4.5 mph - N/A   Clear
10:00 AM 75.2 °F - 55.4 °F 50% 30.33 in - ENE 6.7 mph - N/A   Clear
10:30 AM 75.2 °F - 53.6 °F 47% 30.33 in - East 6.7 mph - N/A   Clear
11:00 AM 77.0 °F - 53.6 °F 44% 30.33 in - East 6.7 mph - N/A   Clear
11:30 AM 78.8 °F - 55.4 °F 44% 30.33 in - East 6.7 mph - N/A   Clear
12:00 PM 78 °F - 52 °F 30% 30.32 in 12 mi ENE 6.7 mph - -   Scattered Clouds
12:00 PM 78.8 °F - 53.6 °F 42% 30.33 in - East 8.9 mph - N/A   Clear
12:30 PM 78.8 °F - 53.6 °F 42% 30.33 in - East 8.9 mph - N/A   Clear
1:00 PM 78.8 °F - 53.6 °F 42% 30.33 in - ENE 6.7 mph - N/A   Clear
1:30 PM 80.6 °F 80.5 °F 55.4 °F 42% 30.33 in - East 6.7 mph - N/A   Clear
2:00 PM 82.4 °F 81.7 °F 55.4 °F 39% 30.33 in - NNE 6.7 mph - N/A   Clear
2:30 PM 80.6 °F 80.5 °F 55.4 °F 42% 30.30 in - ESE 6.7 mph - N/A   Clear
3:00 PM 82 °F - 54 °F 27% 30.29 in 12 mi NE 4.5 mph - -   Scattered Clouds
3:00 PM 82.4 °F 81.7 °F 55.4 °F 39% 30.30 in - East 4.5 mph - N/A   Clear
3:30 PM 80.6 °F 80.3 °F 53.6 °F 39% 30.30 in - ENE 6.7 mph - N/A   Clear
4:00 PM 82.4 °F 81.4 °F 53.6 °F 37% 30.30 in - East 6.7 mph - N/A   Clear
4:30 PM 80.6 °F 80.3 °F 53.6 °F 39% 30.27 in - ENE 6.7 mph - N/A   Clear
5:30 PM 82.4 °F 81.4 °F 53.6 °F 37% 30.27 in - NNE 4.5 mph - N/A   Clear
6:00 PM 82 °F - 53 °F 26% 30.24 in 12 mi SSE 2.2 mph - -  
6:00 PM 80.6 °F 80.5 °F 55.4 °F 42% 30.27 in - ENE 6.7 mph - N/A   Clear
6:30 PM 80.6 °F 80.5 °F 55.4 °F 42% 30.24 in - NE 6.7 mph - N/A   Clear
7:00 PM 78.8 °F - 55.4 °F 44% 30.24 in - ENE 6.7 mph - N/A   Clear
7:30 PM 77.0 °F - 55.4 °F 47% 30.24 in - NE 6.7 mph - N/A   Clear
8:00 PM 75.2 °F - 53.6 °F 47% 30.27 in - NE 6.7 mph - N/A   Clear
8:30 PM 71.6 °F - 55.4 °F 57% 30.27 in - ENE 4.5 mph - N/A   Clear
9:00 PM 74 °F - 54 °F 39% 30.26 in 12 mi East 4.5 mph - -  
9:00 PM 69.8 °F - 55.4 °F 60% 30.27 in - ENE 4.5 mph - N/A   Clear
9:30 PM 66.2 °F - 55.4 °F 68% 30.27 in - East 4.5 mph - N/A   Clear
10:00 PM 68.0 °F - 55.4 °F 64% 30.27 in - East 4.5 mph - N/A   Clear
10:30 PM 68.0 °F - 55.4 °F 64% 30.27 in - East 6.7 mph - N/A   Clear
11:00 PM 64.4 °F - 53.6 °F 68% 30.27 in - East 4.5 mph - N/A   Clear
11:30 PM 64.4 °F - 53.6 °F 68% 30.27 in - East 4.5 mph - N/A   Clear